Location: Quaker Farms
(41.4276°N, 73.1557°W)
Time: 21:08:13
(UTC+00:00)

S-56A Canister/Altair - Pass Details

Date: 15 June 2021
Orbit: 631 x 2501 km, 38.9° (Epoch: 30 July)

Event Time Altitude Azimuth Distance (km) Brightness Sun altitude
Rises 17:10:30 0° 275° (W) 4,066 11.3 71.6°
Reaches altitude 10° 17:13:37 10° 262° (W) 3,369 11.1 71.4°
Maximum altitude 17:20:10 24° 213° (SSW) 2,962 11.2 71.1°
Drops below altitude 10° 17:28:42 10° 167° (SSE) 4,501 11.8 70.5°
Sets 17:33:47 0° 155° (SSE) 5,779 12.2 70.0°
